Regional Weather Roundup
Issued by NWS

Home | Current Version | Previous Version | Graphics & Text | Print | Product List | Glossary On
Versions: 1 2 3 4 5 6 7 8 9 10 11 12 13 14 15 16 17 18 19 20 21 22 23 24 25 26 27 28 29 30 31 32 33 34 35 36 37 38 39 40 41 42 43 44 45 46 47 48 49 50
284
ASUS43 KIND 240009
RWRIN

WEATHER ROUNDUP FOR INDIANA
NATIONAL WEATHER SERVICE INDIANAPOLIS IN
800 PM EDT WED AUG 23 2017

NOTE: "FAIR" INDICATES FEW OR NO CLOUDS BELOW 12,000 FEET WITH NO
SIGNIFICANT WEATHER AND/OR OBSTRUCTIONS TO VISIBILITY.

* - STATION DOES NOT REPORT WEATHER SUCH AS PRECIPITATION OR FOG.

+ - STATION NOT QUALITY CONTROLLED BY THE NATIONAL WEATHER SERVICE.
    USE DATA WITH CAUTION...ESPECIALLY DEWPOINT AND RELATIVE
    HUMIDITY OBSERVATIONS.

INZ001>003-010>013-019-020-240100-
NORTHWEST INDIANA

CITY           SKY/WX    TMP DP  RH WIND       PRES   REMARKS
GARY /AIRPORT/ PTCLDY    70  54  56 E9        30.02S
KNOX *+        CLEAR     66  55  68 N5        30.01S
LA PORTE +     CLEAR     67  54  62 N3        30.02F
6HR MIN TEMP:  67; 6HR MAX TEMP:  73;

MICHIGAN CITY+ PTCLDY    66  54  63 CALM      30.02F
MONTICELLO +   PTCLDY    68  58  71 CALM      30.00S
6HR MIN TEMP:  68; 6HR MAX TEMP:  76;

RENSSELAER +   CLOUDY    72  48  43 NE7       30.01S
VALPARAISO     CLEAR     69  56  62 NE5       30.02S
6HR MIN TEMP:  69; 6HR MAX TEMP:  77;


$$

LMZ046-743>745-240100-
SOUTHERN LAKE MICHIGAN

STATION/POSITION TIME  TEMP    WIND        PRES    WAVE
                       AIR SEA DIR/SP/G            HT
                 (UTC) (F)     (DEG/KT/KT) (MB)    (FT)
BURNS HARBOR     2340   70      50/  9/ 12 1016.6F
MICHIGAN CITY    2340   68      30/  7/  8   N/A
5NW MICH CITY    2350   69 74   60/  8/ 10   N/A     3

$$

INZ004-005-014>016-021>024-240100-
NORTH CENTRAL INDIANA

CITY           SKY/WX    TMP DP  RH WIND       PRES   REMARKS
ELKHART        CLEAR     68  48  49 W6        30.02R
GOSHEN         CLEAR     68  48  48 N12       30.01S
6HR MIN TEMP:  68; 6HR MAX TEMP:  76;

LOGANSPORT +   MOCLDY    68  59  73 N3        30.01S
PERU/GRISSOM   PTCLDY    70  58  64 NE5       30.00S
6HR MIN TEMP:  70; 6HR MAX TEMP:  76;

ROCHESTER +    CLEAR     70  55  60 N3        30.02S
SOUTH BEND     CLEAR     66  53  63 N8        30.02S
6HR MIN TEMP:  66; 6HR MAX TEMP:  74;

WARSAW +       CLEAR     66  52  59 N5        30.02S

$$

INZ006>009-017-018-025>027-240100-
NORTHEAST INDIANA

CITY           SKY/WX    TMP DP  RH WIND       PRES   REMARKS
AUBURN +       CLEAR     68  48  49 NW7G16    30.01R
FORT WAYNE     PTCLDY    70  50  49 NW9       30.00R
6HR MIN TEMP:  69; 6HR MAX TEMP:  76;

HUNTINGTON +   CLEAR     67  51  56 NW5       30.00S
6HR MIN TEMP:  67; 6HR MAX TEMP:  75;

KENDALLVILLE + CLEAR     65  50  58 NW5       30.01S

$$

INZ028-029-035-036-043>045-051>053-240100-
WEST CENTRAL INDIANA

CITY           SKY/WX    TMP DP  RH WIND       PRES   REMARKS
GREENCASTLE +  CLEAR     70  50  49 N3        30.02F
LAFAYETTE      CLEAR     71  56  58 W5        30.00S
6HR MIN TEMP:  71; 6HR MAX TEMP:  77;

TERRE HAUTE    CLEAR     72  54  53 N6        30.01S
6HR MIN TEMP:  72; 6HR MAX TEMP:  79;


$$

INZ030>032-037>040-046>048-054>057-064-065-240100-
CENTRAL INDIANA

CITY           SKY/WX    TMP DP  RH WIND       PRES   REMARKS
CP ATTERBURY + CLEAR     70  52  52 W3        30.01S
COLUMBUS       CLEAR     72  48  43 NW5       30.00F
FRANKFORT +    MOCLDY    72  58  61 NW3       30.03S
6HR MIN TEMP:  72; 6HR MAX TEMP:  79;

GREENWOOD *+   CLEAR     90  70  52 N6        30.01F HX  95
6HR MIN TEMP:  76; 6HR MAX TEMP:  91;

INDIANAPOLIS   PTCLDY    72  50  45 NW9       30.00F
6HR MIN TEMP:  72; 6HR MAX TEMP:  78;

-EAGLE CREEK   CLEAR     73  50  44 NW8       30.00F
6HR MIN TEMP:  73; 6HR MAX TEMP:  79;

KOKOMO +       CLOUDY    72  57  59 N3        30.02R
6HR MIN TEMP:  71; 6HR MAX TEMP:  75;

MARION +       PTCLDY    66  55  68 CALM      30.01S
MT COMFORT *+  CLEAR     70  54  56 NW5       30.01F
SHELBYVILLE    CLEAR     71  54  54 N5        30.00S
6HR MIN TEMP:  71; 6HR MAX TEMP:  79;

ZIONSVILLE +   CLEAR     69  54  59 CALM      30.02F
6HR MIN TEMP:  69; 6HR MAX TEMP:  74;


$$

INZ033-034-041-042-049-050-058-059-240100-
EAST CENTRAL INDIANA

CITY           SKY/WX    TMP DP  RH WIND       PRES   REMARKS
MUNCIE         CLEAR     69  55  60 NW6       30.01S
6HR MIN TEMP:  69; 6HR MAX TEMP:  77;

RICHMOND +     CLEAR     68  54  60 NW5       30.01F

$$

INZ060-061-067>069-081>083-085>088-240100-
SOUTHWEST INDIANA

CITY           SKY/WX    TMP DP  RH WIND       PRES   REMARKS
EVANSVILLE     CLEAR     75  54  47 NW6       30.00S
6HR MIN TEMP:  75; 6HR MAX TEMP:  81;

HUNTINGBURG +  CLEAR     73  54  51 MISG      30.00S
6HR MIN TEMP:  73; 6HR MAX TEMP:  80;

WASHINGTON +   PTCLDY    73  52  48 MISG      30.00S
6HR MIN TEMP:  73; 6HR MAX TEMP:  79;


$$

INZ062-063-066-070>080-084-089>092-240100-
SOUTH CENTRAL AND SOUTHEAST INDIANA

CITY           SKY/WX    TMP DP  RH WIND       PRES   REMARKS
BLOOMINGTON    CLEAR     73  50  44 N8        30.01S
6HR MIN TEMP:  73; 6HR MAX TEMP:  80;

MADISON *+     CLEAR     72  54  53 CALM      30.01F
NORTH VERNON + PTCLDY    70  57  64 CALM      30.00F
SEYMOUR +      CLEAR     75  52  43 N7        29.99F

$$





USA.gov is the U.S. government's official web portal to all federal, state and local government web resources and services.